Simultaneous Nadir Overpasses (SNOs) Predictions

Prediction of SNOs between AQUA and METOP-A Satellite Orbit:

Table of predicted SNOs for the next 14.0 days since TLE Epoch: 12/20/2019
Index Date (AQUA) Time (AQUA) Lat,Lon (AQUA) SZA (AQUA ) Date (METOP-A) Time (METOP-A) Lat,Lon (METOP-A) SZA (METOP-A ) Distance(km) Time Diff (sec)
1 12/21/2019 21:42:06 -75.71, 24.02 80.74 12/21/2019 21:41:39 -75.71, 23.94 80.73 2.13 27
2 12/21/2019 22:31:35 75.76,-168.50 99.32 12/21/2019 22:32:18 75.75,-168.61 99.31 3.20 43
3 12/24/2019 17:16:22 -75.73, 90.39 80.73 12/24/2019 17:16:02 -75.72, 90.32 80.73 2.37 20
4 12/24/2019 18:05:51 75.78,-102.14 99.34 12/24/2019 18:06:40 75.80,-102.09 99.34 2.04 49
5 12/27/2019 12:01:00 75.17, -9.24 98.59 12/27/2019 11:59:55 75.11, -12.47 98.69 92.29 65
6 12/27/2019 12:50:37 -75.76, 156.75 80.77 12/27/2019 12:50:23 -75.77, 156.84 80.76 2.99 14
7 12/27/2019 13:40:06 75.81, -35.79 99.30 12/27/2019 13:41:02 75.80, -35.73 99.27 2.25 56
8 12/30/2019 07:35:21 75.46, 56.40 98.77 12/30/2019 07:34:12 75.39, 54.73 98.80 47.48 69
9 12/30/2019 08:24:53 -75.79,-136.91 80.87 12/30/2019 08:24:46 -75.78,-136.79 80.88 3.71 7
10 12/30/2019 09:14:21 75.80, 30.69 99.15 12/30/2019 09:15:25 75.80, 30.63 99.14 1.43 64
11 01/02/2020 03:09:41 75.70, 122.15 98.85 01/02/2020 03:08:28 75.73, 122.10 98.89 3.22 73
12 01/02/2020 03:59:08 -75.78, -70.44 81.07 01/02/2020 03:59:09 -75.78, -70.42 81.08 0.54 1




NCC Satellite Simultaneous Nadir Overpasses (SNOs) Prediction Service
